71P/Clark (2017)

Japanese version
Home page
Updated on May 20, 2017

---------------------------------------------------------------------

* Profile

* Pictures

* Orbital Elements

Epoch 2017 June 16.0 TT = JDT 2457920.5
T 2017 June 30.19860 TT                                 MPCW
q   1.5862703            (2000.0)            P               Q
n   0.17738652     Peri.  208.91259     -0.03429084     +0.98936860
a   3.1370562      Node    59.44591     -0.88248591     +0.03639899
e   0.4943443      Incl.    9.44593     -0.46908715     -0.14080086
P   5.56
From 1113 observations 2005 Dec. 22-2017 May 6, mean residual 0".8.
     Nongravitational parameters A1 = +2.46, A2 = +0.0844, A3 = -0.5255.

* Finding Charts

* Magnitudes Graph

        m1 = 7.2 + 5 log d + 20.0 log r(t - 30)

---------------------------------------------------------------------

The orbital elements are published on M.P.E.C. 2017-J52.
The charts are made with StellaNavigator Ver.8 (AstroArts).
The magnitudes graphs are made with Comet for Windows.

---------------------------------------------------------------------

Copyright(C) Seiichi Yoshida (comet@aerith.net). All rights reserved.